Temp
-1 -2 -2 -2 -1 -1 -1 -1 -1 -0 -0 0 0 1 1 1 1 1 1 2 2 2 -1 0 -0 1 -0 1 0 1 -0 1 0 -0 -0 -0 1 1 1 2 2 2 2 2
-1 -2 -1 -1 -2 -2 -1 -1 -1 -1 -0 -1 -0 0 0 0 1 0 0 1 1 1 -1 -0 1 1 1 -0 0 1 0 0 -0 -0 -1 -2 -1 1 1 1 2 2 2 2
-1 -0 -1 -2 -2 -2 -2 -2 -1 -1 -1 -1 -1 -1 0 1 1 1 1 0 0 0 1 -1 -0 1 0 0 0 -0 -1 -0 -0 -1 -0 -0 -1 -0 0 1 1 2 2 2
-3 -1 -2 -2 -2 -2 -2 -1 -1 -1 -1 -2 -1 -2 -1 0 1 1 1 1 1 1 1 1 -2 -0 -0 -1 -1 -0 -0 -0 -1 -2 -1 -1 -0 -0 0 1 1 1 1 1
-3 -2 -2 -2 -2 -2 -2 -1 -1 -1 -1 -1 -2 -3 -1 -1 0 1 2 2 2 1 1 1 1 -1 -1 -1 -0 -0 -0 -1 -0 -1 -2 -1 -1 -1 0 1 1 1 -0 0
-3 -3 -2 -2 -2 -2 -2 -2 -2 -2 -2 -3 -2 -2 -1 -1 0 2 2 2 2 1 0 0 0 0 -2 -2 -1 -1 -1 -1 -2 -1 -1 -1 -1 -0 0 0 0 -0 -1 -2
-3 -3 -2 -3 -3 -2 -3 -2 -3 -4 -4 -3 -1 -3 -1 0 1 2 2 2 2 1 1 0 1 1 1 -3 -2 -1 -1 -2 -2 -1 -1 -1 -0 -0 -0 0 -1 -2 -3 -3
-4 -3 -2 -2 -3 -2 -2 -3 -2 -2 -3 -3 -1 -3 -1 0 0 1 1 2 1 1 1 1 0 -0 -2 -3 -2 -2 -2 -2 -2 -2 -2 -1 -1 -1 -1 -1 -1 -3 -4 -5
-4 -4 -2 -2 -1 -2 -4 -3 -2 -2 -2 -3 -1 -1 -1 -0 0 1 1 1 1 2 1 1 0 -1 -1 -4 -2 -2 -2 -2 -3 -2 -2 -1 -1 -1 -1 -1 -3 -4 -5 -5
-4 -4 -3 -3 -3 -3 -4 -3 -4 -4 -3 -3 -3 -2 -0 0 1 2 2 1 1 1 1 1 0 -0 -1 -2 -3 -3 -3 -3 -3 -2 -2 -2 -2 -1 -2 -3 -5 -5 -6 -6
-5 -6 -4 -4 -4 -4 -4 -4 -4 -4 -3 -3 -2 -1 -1 -0 1 2 2 1 1 1 1 1 0 -0 -1 -2 -3 -3 -3 -3 -3 -3 -2 -2 -2 -3 -4 -5 -6 -6 -6 -5
-6 -6 -6 -4 -3 -4 -4 -4 -3 -3 -3 -3 -2 -1 -0 0 0 0 1 2 2 2 0 -0 -0 -0 -1 -2 -3 -3 -3 -3 -3 -3 -3 -3 -3 -4 -5 -5 -6 -6 -6 -6
-7 -7 -7 -6 -4 -4 -5 -5 -5 -5 -4 -4 -3 -2 -1 -1 0 1 1 1 1 1 1 -0 -1 -1 -2 -3 -3 -3 -4 -4 -4 -4 -5 -5 -5 -5 -6 -6 -6 -7 -7 -7
-7 -8 -8 -8 -6 -6 -6 -6 -7 -6 -6 -6 -6 -4 -2 -1 -1 0 1 1 0 0 -0 -1 -1 -2 -3 -3 -4 -4 -5 -5 -6 -6 -6 -6 -6 -7 -7 -8 -8 -8 -8 -8
-9 -9 -9 -8 -8 -7 -8 -7 -7 -7 -6 -6 -5 -5 -4 -4 -1 -0 0 0 -0 -0 -1 -1 -2 -3 -4 -4 -4 -5 -5 -6 -7 -7 -7 -8 -8 -8 -9 -9 -9 -9 -9 -9
-9 -10 -9 -10 -9 -8 -9 -8 -8 -8 -7 -7 -6 -5 -4 -5 -4 -2 -1 -1 -0 0 -0 -1 -2 -3 -4 -5 -5 -6 -7 -8 -8 -8 -8 -9 -10 -10 -10 -10 -10 -10 -10 -10
-11 -11 -11 -11 -10 -10 -11 -9 -7 -7 -6 -6 -6 -4 -5 -5 -4 -3 -2 -1 -1 -1 -1 -2 -4 -4 -5 -5 -6 -7 -8 -9 -9 -9 -10 -11 -12 -12 -12 -12 -12 -12 -12 -12
-11 -11 -12 -12 -12 -17 -10 -8 -8 -8 -6 -7 -6 -5 -5 -5 -5 -4 -4 -4 -3 -3 -4 -5 -5 -4 -5 -6 -6 -8 -9 -10 -10 -11 -12 -12 -13 -13 -13 -13 -13 -12 -12 -12
-10 -11 -13 -12 -12 -11 -10 -9 -8 -8 -7 -7 -6 -6 -5 -4 -5 -6 -5 -4 -4 -3 -4 -4 -5 -6 -6 -7 -8 -9 -10 -11 -12 -13 -14 -13 -13 -13 -13 -13 -13 -13 -12 -12
-11 -11 -14 -13 -14 -17 -10 -9 -9 -8 -9 -7 -7 -7 -7 -6 -7 -6 -6 -4 -4 -6 -6 -5 -5 -6 -8 -9 -10 -11 -12 -12 -12 -12 -13 -13 -13 -13 -13 -13 -12 -12 -13 -12
-13 -13 -14 -14 -13 -12 -11 -10 -11 -11 -9 -9 -9 -8 -8 -7 -7 -7 -7 -7 -7 -9 -9 -9 -9 -9 -10 -11 -11 -12 -13 -13 -14 -14 -14 -14 -14 -13 -13 -13 -13 -13 -13 -12
-14 -14 -14 -13 -13 -12 -13 -13 -13 -12 -11 -11 -10 -9 -9 -9 -9 -8 -9 -10 -10 -11 -10 -10 -11 -11 -13 -14 -14 -14 -14 -14 -14 -14 -14 -14 -13 -14 -14 -13 -13 -13 -13 -12
-15 -15 -14 -14 -13 -14 -14 -13 -13 -13 -12 -12 -12 -11 -10 -10 -10 -10 -10 -10 -11 -12 -12 -13 -14 -14 -14 -15 -15 -15 -15 -15 -15 -14 -13 -14 -14 -14 -13 -13 -13 -13 -13 -13
-16 -16 -16 -15 -14 -14 -14 -14 -13 -13 -12 -12 -13 -12 -11 -10 -11 -12 -12 -12 -13 -13 -14 -14 -15 -15 -15 -15 -15 -16 -15 -15 -14 -15 -14 -14 -14 -13 -13 -13 -13 -13 -13 -14
-17 -17 -16 -15 -14 -14 -14 -14 -14 -13 -12 -12 -12 -13 -12 -12 -13 -14 -13 -14 -15 -15 -15 -16 -16 -16 -16 -16 -16 -15 -15 -15 -14 -14 -14 -14 -14 -14 -14 -14 -14 -14 -15 -15
-17 -17 -16 -16 -15 -15 -15 -14 -14 -14 -13 -13 -12 -13 -14 -14 -15 -15 -16 -16 -16 -16 -16 -17 -17 -17 -16 -16 -16 -16 -15 -14 -14 -14 -14 -14 -14 -14 -14 -14 -15 -15 -16 -16
Height
3060 3061 3057 3062 3066 3070 3073 3075 3075 3076 3078 3079 3079 3082 3083 3082 3081 3083 3085 3087 3090 3093 3095 3101 3104 3105 3102 3107 3111 3116 3123 3128 3131 3134 3135 3136 3137 3138 3138 3139 3139 3139 3140 3141
3057 3054 3060 3065 3067 3068 3070 3071 3072 3074 3075 3076 3075 3074 3073 3074 3076 3078 3080 3082 3086 3086 3090 3095 3098 3100 3102 3103 3103 3112 3118 3121 3126 3129 3131 3132 3132 3134 3134 3135 3135 3134 3136 3137
3051 3053 3058 3060 3062 3064 3064 3065 3067 3070 3071 3069 3068 3066 3066 3069 3069 3070 3073 3077 3078 3080 3083 3088 3093 3095 3097 3100 3105 3105 3112 3117 3120 3124 3127 3127 3128 3128 3130 3130 3130 3130 3131 3132
3049 3051 3051 3054 3054 3059 3058 3062 3065 3066 3067 3064 3065 3058 3058 3062 3065 3066 3068 3069 3072 3072 3076 3081 3085 3087 3091 3095 3097 3102 3106 3109 3114 3118 3122 3123 3123 3122 3124 3124 3125 3125 3126 3126
3041 3045 3046 3045 3046 3055 3053 3059 3061 3061 3061 3061 3060 3061 3048 3055 3055 3059 3061 3062 3061 3064 3068 3072 3076 3077 3082 3089 3092 3097 3100 3103 3110 3113 3115 3117 3116 3117 3118 3119 3119 3121 3121 3121
3035 3041 3041 3041 3046 3048 3053 3056 3056 3055 3056 3053 3048 3053 3035 3039 3045 3049 3052 3052 3053 3055 3059 3062 3065 3067 3073 3081 3086 3090 3093 3098 3102 3105 3108 3109 3110 3111 3112 3113 3115 3115 3116 3116
3033 3031 3035 3039 3041 3043 3046 3051 3048 3048 3047 3034 3040 3043 3014 3032 3035 3039 3043 3045 3046 3048 3049 3051 3055 3059 3064 3070 3077 3082 3086 3091 3094 3098 3101 3102 3104 3106 3107 3108 3109 3110 3111 3112
3027 3026 3026 3029 3030 3031 3033 3036 3036 3032 3031 3030 3032 3019 3011 3021 3028 3031 3032 3035 3035 3037 3040 3045 3050 3054 3058 3064 3069 3074 3080 3085 3088 3091 3093 3096 3098 3099 3101 3102 3103 3104 3106 3107
3019 3016 3017 3019 3021 3026 3025 3026 3025 3028 3026 3025 3017 3010 3012 3015 3019 3022 3022 3024 3028 3030 3033 3038 3042 3046 3050 3056 3062 3067 3073 3077 3080 3083 3086 3088 3091 3093 3095 3096 3097 3099 3101 3102
3014 3009 3009 3011 3015 3015 3015 3020 3022 3018 3015 3013 3007 3005 3002 3005 3011 3014 3014 3017 3019 3023 3026 3030 3033 3037 3042 3047 3053 3059 3064 3068 3072 3076 3079 3082 3084 3086 3088 3090 3092 3094 3095 3096
3011 3009 3006 3006 3004 3004 3007 3007 3010 3009 3006 3005 3002 2992 2996 3001 3005 3008 3010 3011 3013 3016 3020 3023 3026 3030 3035 3040 3046 3052 3057 3061 3065 3069 3072 3075 3078 3079 3081 3083 3086 3088 3089 3090
3007 3004 3000 3000 2999 2998 2996 2996 2996 2994 2994 2992 2993 2980 2990 2992 2997 2999 3002 3003 3007 3010 3013 3017 3021 3025 3029 3034 3039 3044 3049 3053 3057 3061 3065 3068 3071 3073 3075 3077 3079 3082 3084 3085
3000 2997 2993 2991 2992 2991 2990 2990 2989 2989 2985 2981 2985 2968 2984 2988 2991 2994 2995 2996 3000 3003 3007 3011 3014 3018 3023 3027 3032 3036 3041 3045 3050 3054 3057 3060 3063 3066 3068 3071 3074 3076 3079 3080
2995 2992 2991 2989 2988 2988 2985 2983 2982 2982 2982 2976 2977 2978 2981 2981 2984 2987 2988 2988 2992 2997 3001 3004 3008 3012 3015 3019 3023 3028 3033 3038 3042 3046 3050 3054 3057 3060 3063 3066 3069 3071 3074 3075
2989 2985 2985 2981 2982 2981 2978 2977 2976 2978 2974 2972 2971 2972 2973 2975 2978 2980 2984 2985 2988 2991 2993 2997 3001 3005 3008 3012 3016 3020 3025 3030 3036 3040 3044 3047 3051 3055 3058 3061 3064 3066 3068 3070
2982 2978 2977 2972 2974 2974 2968 2969 2970 2970 2968 2967 2966 2962 2967 2967 2967 2970 2975 2979 2982 2986 2990 2993 2997 2999 3002 3006 3010 3015 3020 3024 3030 3034 3038 3041 3045 3049 3052 3055 3058 3061 3063 3064
2976 2974 2972 2963 2968 2965 2957 2959 2960 2959 2958 2959 2959 2958 2958 2958 2959 2960 2966 2970 2973 2977 2981 2984 2991 2995 2997 3000 3005 3010 3014 3019 3023 3027 3031 3035 3039 3043 3046 3050 3052 3055 3057 3059
2965 2966 2966 2959 2963 2961 2951 2951 2952 2950 2950 2949 2949 2948 2951 2953 2951 2951 2956 2961 2965 2969 2974 2976 2980 2985 2989 2993 2998 3004 3009 3013 3017 3021 3026 3030 3034 3038 3041 3044 3047 3050 3052 3053
2956 2956 2955 2953 2950 2944 2944 2946 2945 2943 2942 2941 2941 2942 2942 2945 2946 2945 2946 2950 2956 2961 2962 2967 2974 2978 2982 2987 2992 2998 3003 3007 3011 3016 3021 3025 3030 3034 3038 3041 3043 3044 3045 3046
2949 2946 2948 2948 2945 2942 2938 2938 2936 2936 2933 2934 2933 2933 2933 2936 2937 2939 2940 2943 2947 2950 2955 2960 2965 2970 2975 2980 2985 2990 2996 3003 3010 3015 3020 3024 3028 3031 3033 3035 3036 3038 3039 3040
2942 2940 2938 2936 2937 2933 2933 2932 2931 2933 2931 2924 2925 2925 2926 2928 2931 2932 2932 2934 2937 2942 2948 2952 2958 2964 2969 2976 2984 2991 2997 3003 3008 3012 3017 3021 3024 3027 3030 3030 3032 3034 3034 3033
2937 2936 2934 2933 2929 2927 2926 2927 2929 2928 2924 2924 2922 2920 2919 2921 2923 2925 2926 2929 2934 2936 2939 2947 2955 2962 2969 2976 2982 2988 2995 3000 3005 3010 3014 3018 3020 3022 3025 3027 3027 3027 3027 3026
2935 2933 2929 2929 2925 2923 2923 2923 2922 2922 2921 2920 2919 2917 2917 2917 2918 2921 2924 2926 2930 2935 2941 2946 2953 2958 2966 2974 2981 2988 2994 2999 3004 3008 3011 3014 3017 3019 3020 3021 3022 3021 3020 3018
2930 2928 2926 2925 2921 2920 2919 2918 2916 2916 2915 2915 2914 2913 2912 2914 2915 2917 2920 2923 2927 2932 2937 2944 2952 2960 2967 2974 2980 2987 2993 2998 3002 3005 3009 3011 3013 3015 3015 3015 3015 3013 3012 3010
2925 2922 2919 2917 2916 2914 2913 2911 2910 2909 2908 2908 2909 2908 2909 2910 2911 2915 2918 2922 2927 2932 2939 2947 2954 2962 2969 2975 2982 2987 2992 2997 3001 3004 3006 3008 3009 3010 3010 3009 3008 3006 3004 3003
2917 2914 2913 2912 2911 2909 2907 2905 2903 2902 2902 2902 2904 2904 2904 2907 2911 2914 2918 2924 2930 2936 2943 2949 2956 2964 2971 2977 2983 2988 2992 2996 2999 3001 3003 3004 3004 3004 3004 3003 3002 3000 2998 2996
Wind_Speed
31 34 39 35 32 28 22 24 25 27 27 25 25 20 20 22 25 25 26 28 28 29 29 38 37 43 37 38 31 31 29 30 25 22 23 24 18 18 18 17 17 16 18 18
30 38 35 33 30 28 29 28 28 27 25 22 23 25 26 28 24 24 25 25 25 29 33 36 41 41 39 34 30 31 27 28 27 25 26 23 24 20 21 20 19 18 19 20
31 30 34 34 33 32 32 32 30 22 16 20 21 27 29 28 28 27 27 29 30 27 28 36 41 42 43 39 37 28 31 28 28 28 30 30 28 25 24 23 22 21 21 21
28 30 24 36 39 36 37 35 31 31 28 23 21 12 25 26 29 31 28 28 27 29 30 33 40 41 41 39 33 32 31 30 32 30 35 32 27 26 26 24 24 24 23 22
24 20 32 34 35 38 38 31 26 29 31 29 22 13 26 31 33 32 28 27 27 29 32 34 35 39 41 40 37 38 34 34 31 33 36 32 28 28 26 26 25 25 24 24
28 23 20 31 30 28 33 28 22 28 26 13 34 28 31 35 31 32 28 26 27 27 34 36 37 35 41 43 41 41 36 39 38 38 36 33 30 28 27 27 25 24 23 23
31 33 32 24 24 29 30 35 9 8 9 11 23 23 49 26 29 31 26 24 30 30 32 37 37 37 39 44 47 44 43 43 43 40 36 31 30 28 27 26 24 22 22 23
17 14 32 34 40 36 40 38 14 7 6 6 19 20 29 27 31 34 30 26 28 31 31 30 36 39 41 43 45 45 44 45 44 41 35 32 30 28 27 26 24 23 24 25
9 17 25 25 32 44 34 37 44 27 18 3 20 30 38 29 26 26 28 32 34 31 32 34 32 39 39 40 45 45 45 45 42 37 34 31 29 28 28 26 25 25 26 26
21 22 32 34 26 36 44 41 19 27 7 12 12 24 22 17 26 29 29 26 30 33 29 29 34 36 39 38 42 44 44 42 38 35 33 30 29 28 27 26 26 27 27 27
20 16 15 18 23 35 39 37 29 26 21 10 11 19 33 34 25 23 20 20 23 25 30 30 27 35 40 41 39 40 41 38 36 35 33 31 30 28 27 26 27 27 27 26
28 19 24 35 36 26 28 40 51 25 22 31 36 33 10 18 33 36 38 38 32 28 30 29 29 30 36 39 39 38 37 37 36 34 32 31 30 28 27 27 27 27 25 23
15 9 7 4 8 13 20 19 33 26 28 29 16 37 43 39 26 25 31 38 35 32 31 29 28 29 30 32 36 37 37 36 34 32 30 29 28 28 27 26 25 24 23 22
29 19 16 11 17 22 33 30 30 25 11 14 20 33 20 28 37 27 25 33 33 32 27 27 27 27 29 29 30 31 32 32 32 30 29 28 27 26 25 24 24 24 23 23
27 27 29 30 28 31 33 34 35 27 24 21 32 31 26 28 26 29 36 29 19 22 21 24 25 27 27 28 30 32 31 30 30 29 28 27 27 26 25 25 25 25 25 24
29 23 28 31 30 29 34 32 27 28 31 32 28 36 26 27 32 31 33 35 37 32 30 22 20 25 28 27 28 30 31 30 30 29 29 28 27 26 26 25 25 25 25 24
28 26 25 23 27 28 23 21 26 26 28 32 29 30 24 26 28 40 37 37 37 37 36 34 29 25 28 27 28 30 30 31 32 31 30 29 28 27 26 25 25 25 25 27
39 38 32 26 23 5 23 26 26 28 29 29 30 25 23 24 25 28 40 36 33 30 34 30 31 32 32 31 31 32 33 33 33 32 30 29 27 25 24 25 26 26 27 27
31 38 28 17 20 23 19 17 21 21 20 20 30 36 30 27 25 27 35 42 37 35 31 28 31 31 33 33 33 35 36 35 34 33 30 28 26 24 23 23 23 23 22 19
22 25 32 16 6 7 17 23 28 35 35 34 32 27 28 21 24 25 33 40 38 37 34 35 35 36 35 36 37 38 37 32 25 22 21 20 21 22 23 23 21 17 16 21
18 18 27 33 21 14 22 20 15 8 11 17 20 26 28 26 26 26 28 42 42 36 35 34 33 35 36 33 28 25 23 22 22 20 20 20 20 21 19 13 13 19 22 24
15 12 20 18 11 11 10 11 8 13 20 18 13 13 16 24 25 25 23 24 30 32 34 31 28 27 27 28 27 25 24 22 20 19 19 20 18 12 10 16 19 21 24 26
9 9 8 9 11 17 16 16 20 21 22 25 26 22 14 15 18 20 19 21 26 25 24 27 30 32 31 29 27 24 21 20 21 21 17 11 10 14 16 18 20 22 24 26
24 23 19 21 13 22 21 17 16 17 23 22 24 24 16 17 17 17 18 21 24 27 30 33 32 30 29 29 26 25 23 22 17 12 12 12 13 15 16 18 19 21 24 25
24 27 30 27 24 22 21 17 16 17 18 19 24 21 16 16 15 16 20 24 28 31 33 33 32 30 28 26 24 23 18 14 13 11 11 12 12 13 15 17 18 20 21 21
20 22 24 24 22 19 21 22 20 18 18 19 18 20 16 15 14 20 25 30 33 35 35 35 32 28 27 25 20 16 14 13 11 10 9 9 10 12 14 15 15 16 17 18
Wind_Direction
204 208 212 213 215 225 229 234 238 250 251 255 260 253 254 256 254 249 245 244 238 228 217 219 221 221 229 210 223 215 231 231 236 247 243 262 262 264 266 273 278 272 261 257
212 217 220 220 221 223 231 237 240 248 254 259 256 257 253 251 253 257 251 248 245 237 222 220 225 227 224 219 210 220 219 227 230 236 249 257 261 267 269 272 276 275 265 257
224 232 225 225 225 228 232 234 238 242 254 258 254 256 243 243 247 252 252 243 241 238 238 224 225 227 225 226 246 232 234 223 226 237 245 254 260 264 266 271 275 273 267 259
234 231 225 226 232 229 235 236 241 250 254 247 256 264 256 249 246 251 255 257 249 244 240 236 226 225 230 238 246 233 222 232 241 237 241 251 255 260 264 268 273 272 267 263
232 234 231 231 232 233 240 242 241 249 253 248 242 241 254 246 242 244 247 258 248 237 237 236 235 226 227 231 233 225 232 245 228 234 250 251 254 256 260 264 266 269 265 263
242 239 236 244 240 235 239 237 244 244 238 230 233 227 253 242 248 259 255 254 252 244 234 231 230 230 225 224 230 236 232 235 242 241 248 248 252 253 256 259 260 261 261 260
245 243 237 235 240 239 240 231 228 209 205 247 235 219 252 253 258 264 267 255 247 246 240 235 232 231 229 224 224 230 232 235 238 242 243 245 249 251 252 254 255 254 255 255
248 253 245 235 229 225 225 219 215 229 214 213 213 224 248 261 254 259 260 242 237 235 237 240 234 233 229 225 225 227 231 235 239 245 244 243 246 249 250 249 250 246 248 252
256 249 261 254 251 227 228 222 231 249 255 232 227 243 251 249 253 252 252 243 238 241 238 231 230 228 231 226 227 229 232 236 240 240 242 242 245 246 248 247 245 244 246 250
261 262 269 266 249 240 229 237 222 228 220 238 239 242 238 239 244 244 250 242 239 236 236 232 227 227 230 229 226 229 232 236 237 238 239 241 244 245 245 242 241 243 247 249
277 282 277 285 239 235 224 230 229 235 219 233 251 248 249 240 239 243 238 241 246 242 239 236 232 226 226 228 229 229 232 235 235 236 237 240 241 241 239 239 240 242 247 250
282 277 266 267 280 276 241 232 230 221 215 229 238 249 236 230 233 236 240 246 245 244 241 237 233 230 228 228 229 230 232 234 235 235 236 237 237 236 235 237 239 241 243 240
261 243 267 279 256 246 251 264 243 246 245 230 221 249 244 240 240 242 246 245 244 245 241 237 233 232 231 230 229 230 231 232 233 233 233 232 232 232 232 233 234 232 230 231
277 283 270 263 266 283 291 282 291 299 256 289 286 269 261 244 235 235 245 239 231 238 239 239 236 231 227 226 224 227 230 229 228 228 228 228 228 227 225 224 226 227 229 232
277 276 280 278 274 273 276 278 282 273 274 257 283 284 283 247 247 242 236 250 240 237 238 240 236 233 230 226 222 219 218 222 224 223 222 221 221 221 222 223 225 228 231 235
276 276 282 277 279 275 276 275 273 268 268 271 268 276 278 274 231 235 234 235 241 231 231 230 246 227 222 219 217 216 216 215 216 218 217 215 216 218 220 222 226 230 234 239
268 266 272 267 281 285 279 277 275 275 269 261 258 272 273 276 267 231 233 234 235 232 230 224 235 231 217 209 212 212 211 211 211 212 213 213 213 215 218 221 227 233 238 244
264 265 261 265 270 277 268 272 268 263 261 254 247 250 272 275 270 248 227 225 234 235 225 218 217 218 213 205 208 210 208 208 209 209 210 213 216 220 223 228 235 245 253 258
258 256 249 242 233 263 261 255 253 267 271 268 258 255 253 259 264 262 234 219 216 221 220 213 217 214 209 207 207 208 208 208 207 206 207 212 221 228 235 242 247 249 251 257
264 263 240 234 231 218 264 265 261 260 264 263 260 254 249 238 248 267 243 220 221 220 218 216 220 215 208 206 205 205 206 208 212 216 216 218 224 229 232 233 236 244 258 266
276 269 229 230 236 251 253 258 264 231 253 255 257 255 253 244 241 254 258 232 216 217 215 210 211 211 206 204 204 203 200 199 201 203 210 217 222 228 228 233 255 261 266 270
292 261 254 267 253 236 228 268 269 283 279 286 291 268 247 239 239 242 249 237 224 206 202 205 206 196 188 184 183 183 186 189 194 200 207 211 212 219 245 255 261 267 272 276
282 313 301 260 261 286 307 301 299 299 298 287 279 280 268 247 240 236 239 228 217 212 202 186 181 178 175 172 174 177 179 185 192 197 198 201 226 240 251 260 266 272 278 283
276 285 292 303 300 302 304 304 286 278 284 285 304 273 263 257 245 235 224 207 194 184 179 174 167 166 167 166 167 171 181 185 180 182 205 224 239 250 259 268 275 281 285 290
282 278 279 291 301 297 299 299 290 279 276 275 291 271 247 233 222 209 199 186 175 167 162 157 156 157 159 162 170 172 164 172 190 203 219 234 247 260 271 279 285 289 293 300
292 286 273 275 292 298 302 306 294 277 260 260 267 255 231 204 195 184 172 163 157 154 153 152 152 154 161 158 151 158 172 185 197 211 228 248 265 276 283 288 294 302 306 310